This is the latest recevied weather packets stored in our database for station/object K1FFK-1. If no packets are shown the sender has not sent any weather packets the latest 10 day(s).
| Time | Temp. | Humidity | Pressure | Rain* | Wind** | Luminosity | Snow |
|---|---|---|---|---|---|---|---|
| 1777669294 | 6.11° C | 51% | 1012.5 hPa | 0 mm | - | - | - |
| 1777668694 | 6.11° C | 50% | 1012.7 hPa | 0 mm | - | - | - |
| 1777668094 | 6.11° C | 50% | 1012.5 hPa | 0 mm | - | - | - |
| 1777667494 | 6.67° C | 50% | 1012.4 hPa | 0 mm | - | - | - |
| 1777666893 | 6.67° C | 47% | 1012.3 hPa | 0 mm | - | - | - |
| 1777666293 | 6.67° C | 49% | 1012.4 hPa | 0 mm | - | - | - |
| 1777665695 | 6.67° C | 47% | 1012.5 hPa | 0 mm | - | - | - |
| 1777665094 | 6.11° C | 48% | 1012.6 hPa | 0 mm | - | - | - |
| 1777664494 | 6.11° C | 48% | 1012.6 hPa | 0 mm | - | - | - |
| 1777663894 | 6.11° C | 50% | 1012.5 hPa | 0 mm | - | - | - |
| 1777663293 | 6.11° C | 49% | 1012.5 hPa | 0 mm | - | - | - |
| 1777662694 | 6.11° C | 50% | 1012.5 hPa | 0 mm | - | - | - |
| 1777662093 | 6.67° C | 53% | 1012.7 hPa | 0 mm | - | - | - |
| 1777661494 | 6.11° C | 51% | 1012.6 hPa | 0 mm | - | - | - |
| 1777660893 | 6.11° C | 56% | 1012.7 hPa | 0 mm | - | - | - |
| 1777660294 | 5.56° C | 55% | 1012.7 hPa | 0 mm | - | - | - |
| 1777659693 | 5.56° C | 56% | 1012.6 hPa | 0 mm | - | - | - |
| 1777659093 | 5° C | 55% | 1012.4 hPa | 0 mm | - | - | - |
| 1777658494 | 5° C | 57% | 1012.5 hPa | 0 mm | - | - | - |
| 1777657893 | 5° C | 60% | 1012.3 hPa | 0 mm | - | - | - |
| 1777657293 | 5.56° C | 60% | 1012.3 hPa | 0 mm | - | - | - |
| 1777656695 | 5.56° C | 61% | 1012.3 hPa | 0 mm | - | - | - |
| 1777656093 | 5° C | 61% | 1012.1 hPa | 0 mm | - | - | - |
| 1777655494 | 5° C | 60% | 1012 hPa | 0 mm | - | - | - |
| 1777654893 | 5° C | 64% | 1012 hPa | 0 mm | - | - | - |
* Rain latest hour (hover to see other rain measurements)
** Current wind speed in m/s (hover to see current wind gust speed)